Wetbulb
54.79 55.99 56.62 57.07 57.23 57.66 57.21 57.52 58.22 59.44 59.94 60.08 59.18 64.49 65.88 67.65 68.12 69.66 69.69 69.41 69.28 68.80 68.22 67.40 66.51 66.09 65.39 65.51 65.19 64.23 62.71 63.21 64.60 62.42 61.26 61.66 63.48 63.26 63.11 63.44 62.68 62.29 63.41
53.15 54.39 54.95 55.64 55.79 55.71 56.28 56.03 56.30 57.07 57.72 58.88 59.80 61.95 65.69 66.60 67.18 68.76 70.10 69.17 68.39 68.71 67.50 66.36 65.11 65.42 65.19 64.71 65.09 64.68 61.61 62.67 63.79 60.26 58.97 56.13 57.47 61.95 62.66 62.86 62.29 62.08 61.90
51.39 52.39 52.62 53.39 53.97 53.64 53.92 53.70 54.23 55.00 56.06 57.59 58.97 59.79 64.79 66.58 66.51 66.77 67.82 68.63 68.24 67.60 67.06 65.86 64.54 64.69 64.98 64.76 65.30 64.10 62.39 60.52 62.04 62.43 60.20 55.17 55.67 56.79 60.26 61.08 62.24 61.40 60.86
51.27 51.37 51.18 51.21 51.27 51.79 51.90 50.56 51.09 52.46 53.23 55.28 57.11 58.97 59.95 63.41 65.41 66.01 66.60 66.95 66.67 66.22 66.04 64.67 64.27 63.94 64.76 64.58 64.93 64.58 64.14 63.07 60.01 61.43 62.90 63.80 59.99 56.77 53.88 56.97 60.97 62.56 61.01
49.83 49.44 49.38 49.64 50.11 49.84 48.51 46.79 47.30 48.85 49.67 50.92 52.43 57.11 59.51 65.29 66.00 65.96 65.25 65.25 65.31 65.11 65.35 64.43 64.73 64.06 64.47 64.34 64.89 65.30 65.45 64.40 61.94 60.82 60.73 61.19 60.96 62.28 58.72 54.51 55.87 59.82 60.63
48.87 48.76 49.11 49.10 49.10 49.25 47.55 44.71 44.28 44.94 47.09 48.68 50.69 53.97 60.03 62.34 65.17 65.03 63.79 63.76 63.87 64.33 64.76 65.05 65.53 64.74 63.87 63.76 63.35 64.25 65.50 64.60 63.48 62.08 61.41 61.04 59.45 59.45 58.13 57.07 56.92 56.79 57.63
47.35 47.17 46.86 46.60 46.83 46.21 45.72 43.07 42.10 42.44 44.45 46.05 48.80 53.84 60.44 61.48 65.18 64.91 64.43 62.71 62.71 63.35 63.96 65.29 62.67 63.15 63.61 63.97 63.59 63.28 65.17 64.48 63.10 62.09 60.41 60.67 60.15 60.77 59.23 58.48 57.12 55.81 56.27
46.28 46.03 45.43 45.23 45.11 44.25 44.60 42.27 40.11 40.66 42.83 45.48 49.00 53.72 62.94 63.37 66.47 64.97 64.43 63.61 63.76 64.73 66.58 64.20 62.19 62.26 63.20 63.66 63.86 63.39 65.48 65.32 64.56 62.48 61.67 60.61 60.52 62.73 59.33 58.45 57.18 55.87 55.42
44.54 44.20 44.66 44.09 44.00 42.96 42.95 40.06 39.33 40.15 41.97 45.20 47.69 53.35 65.58 65.92 64.87 64.49 64.47 64.05 66.85 66.63 65.03 63.26 62.11 62.06 62.62 63.72 63.19 64.27 64.63 63.24 62.01 62.11 62.48 60.69 61.21 61.23 60.38 59.31 59.07 56.62 52.69
43.33 43.10 43.01 42.55 42.93 42.39 42.76 39.55 39.14 39.42 40.84 43.82 46.79 51.91 63.39 63.98 64.36 64.49 64.48 62.91 65.69 64.73 64.02 62.79 63.02 62.43 62.58 63.25 63.58 63.63 62.74 61.07 61.89 62.06 60.76 60.96 61.86 61.17 60.26 59.38 59.02 59.03 56.36
41.79 41.41 41.73 41.78 41.96 42.14 41.37 37.81 37.77 37.94 39.34 41.90 45.65 49.01 61.30 62.76 63.15 63.11 62.84 61.98 63.06 63.78 62.54 62.32 61.23 60.66 61.58 62.42 61.73 61.08 62.17 61.89 60.15 61.60 60.64 60.78 60.96 59.86 59.77 60.63 62.32 60.82 59.98
40.59 40.71 40.91 40.61 40.49 40.55 39.37 36.89 36.32 36.48 37.88 39.90 43.07 46.43 48.42 54.89 59.95 60.22 60.64 61.69 61.16 62.29 62.47 62.07 60.30 60.35 61.24 61.18 61.48 61.24 60.89 60.56 59.67 59.84 59.51 59.61 59.50 59.51 59.70 60.22 59.31 57.51 57.95
39.10 39.58 39.82 39.17 39.00 38.98 37.41 34.54 34.62 34.91 35.75 37.95 41.06 42.29 42.46 45.42 47.63 57.95 59.94 60.55 61.41 61.65 60.82 60.70 59.92 59.86 61.91 61.19 60.22 60.50 60.07 60.13 60.10 59.75 59.33 59.68 59.22 58.66 58.24 58.63 56.91 56.81 55.83
36.77 37.08 37.58 38.20 38.20 37.82 37.05 33.58 33.19 33.83 34.31 35.69 38.08 38.82 41.40 41.70 42.41 46.41 53.62 59.03 59.64 59.63 59.86 60.82 59.49 59.41 59.14 59.44 58.96 58.73 58.81 58.83 60.03 61.47 60.38 60.52 59.26 58.56 57.59 57.07 56.63 56.05 54.92
33.69 34.65 35.42 35.73 36.80 35.95 35.31 35.13 32.99 33.07 34.43 33.89 33.87 36.66 38.55 39.11 39.06 39.32 41.22 44.94 51.86 57.60 56.66 53.53 51.49 51.57 51.33 45.61 49.95 56.25 58.51 58.24 57.81 51.67 49.46 45.44 43.45 45.04 53.37 56.57 56.35 55.51 54.26
32.54 33.19 33.99 33.86 34.29 33.44 33.05 33.15 33.63 32.80 32.78 32.48 33.10 34.39 35.29 37.78 38.30 37.17 36.42 37.08 37.63 40.66 44.13 44.77 45.23 42.12 39.47 37.36 39.04 46.37 53.71 50.44 49.63 46.21 44.14 41.93 40.86 40.28 40.39 41.87 44.61 51.98 53.93
31.17 30.97 31.68 32.36 32.73 32.22 32.53 32.49 32.67 33.76 31.62 31.00 31.87 31.95 32.65 33.89 35.34 36.18 35.38 33.89 34.21 34.59 36.01 38.29 37.82 36.75 37.12 36.96 38.20 39.63 45.32 42.09 40.69 40.80 41.38 40.55 39.32 38.79 37.97 36.20 35.77 34.77 35.70
29.52 29.40 30.67 31.21 31.86 31.98 32.04 32.81 32.90 32.02 32.16 30.63 30.31 30.87 31.24 31.42 32.51 34.19 33.68 33.00 32.82 32.08 32.10 33.38 35.44 35.23 35.06 35.38 35.92 35.99 37.31 37.05 36.11 36.13 37.11 37.31 37.26 36.08 37.02 35.78 33.40 32.57 32.49
30.63 30.33 31.01 31.35 30.81 30.61 31.68 31.75 30.97 31.26 30.81 30.50 30.73 30.90 30.39 30.16 30.53 29.93 31.41 32.04 32.15 31.47 30.64 31.42 33.12 33.84 34.20 34.72 34.66 34.83 33.86 32.83 32.75 33.49 34.38 34.14 33.80 34.50 35.81 33.69 31.64 29.92 28.33
30.44 30.80 31.15 31.07 30.52 30.37 30.99 30.30 29.48 29.20 29.00 29.54 29.82 31.47 32.04 30.67 30.13 31.04 30.34 30.58 30.35 28.94 29.06 28.27 29.98 31.76 32.23 33.96 33.83 33.58 32.65 30.97 30.93 31.33 31.58 32.29 31.94 32.32 32.91 30.66 29.29 25.85 26.83
30.05 30.95 30.69 29.60 30.47 32.64 31.41 29.30 29.10 27.75 29.02 30.75 30.70 30.63 31.55 31.54 31.73 31.73 31.92 31.73 30.83 29.43 28.19 27.04 26.96 27.98 29.94 31.29 32.45 32.35 30.75 29.54 29.18 29.31 29.34 30.70 30.76 30.75 30.33 29.17 27.39 25.74 26.67
28.90 29.93 29.37 28.94 30.20 30.81 31.21 29.63 28.37 30.17 30.72 30.59 30.57 30.40 31.07 31.89 32.46 32.28 32.28 31.92 31.73 30.96 29.95 28.63 27.65 27.30 27.68 28.85 29.74 29.74 29.37 29.26 27.54 27.18 28.38 29.26 29.64 29.25 28.84 27.57 27.60 26.94 26.02
27.99 29.74 29.44 29.12 29.15 29.85 29.68 28.89 30.65 31.69 31.81 30.97 29.95 30.66 31.48 31.49 32.39 31.67 31.49 33.01 32.37 31.95 31.05 30.19 29.18 28.58 29.67 29.28 28.67 28.11 27.35 26.78 24.73 25.76 26.66 26.99 26.94 26.67 26.51 26.68 26.30 25.75 24.26
25.74 27.94 28.35 27.18 27.18 29.02 29.26 29.65 31.19 32.88 31.70 30.51 30.11 30.01 30.18 30.34 30.25 31.38 31.19 29.25 30.55 30.85 30.06 29.90 29.73 29.77 29.25 29.91 30.50 30.12 29.72 28.38 27.86 27.26 27.01 26.61 25.93 25.27 25.15 25.26 26.29 26.43 25.12
24.79 25.60 25.30 25.51 25.92 27.71 27.85 29.20 30.21 31.99 31.29 30.17 30.10 30.28 30.03 29.79 29.16 27.65 27.62 28.72 28.76 28.72 29.07 28.84 28.32 27.44 26.07 27.73 28.30 29.02 28.99 28.66 28.24 29.58 29.52 28.11 28.22 26.91 25.86 26.47 27.06 27.52 27.11
22.93 22.73 22.93 23.40 24.79 25.96 25.63 27.19 29.64 29.98 29.86 28.87 28.43 28.36 29.29 29.44 29.51 29.18 27.22 26.08 26.41 27.10 27.35 27.37 28.10 27.33 26.59 26.18 26.11 25.86 25.71 26.72 28.18 29.10 27.81 26.37 26.47 25.95 25.45 25.00 24.87 25.61 25.60
MSLP
1006.74 1006.95 1007.36 1007.71 1007.82 1007.73 1007.77 1007.65 1007.26 1006.92 1006.67 1006.01 1005.07 1004.16 1003.85 1004.40 1004.54 1004.43 1005.01 1005.44 1005.98 1006.69 1007.56 1008.22 1009.12 1009.69 1010.08 1010.47 1011.15 1011.94 1012.24 1012.45 1012.83 1013.46 1013.99 1014.31 1014.38 1014.39 1014.77 1014.80 1015.15 1015.51 1015.55
1006.77 1007.08 1007.30 1007.50 1007.80 1007.92 1007.95 1007.84 1007.46 1007.06 1006.74 1006.13 1005.36 1004.04 1003.13 1003.24 1003.77 1003.92 1004.06 1004.51 1005.59 1006.15 1006.71 1007.56 1008.34 1009.07 1009.64 1010.12 1010.61 1011.27 1011.94 1012.13 1012.61 1013.01 1013.63 1014.22 1014.69 1014.23 1014.49 1014.81 1015.17 1015.80 1015.38
1007.30 1007.49 1007.73 1007.94 1008.03 1007.95 1008.01 1007.99 1007.68 1007.35 1006.88 1006.29 1005.34 1004.48 1003.13 1002.57 1002.94 1003.42 1003.61 1003.95 1004.88 1005.55 1006.05 1006.90 1007.86 1008.67 1009.10 1009.64 1010.00 1010.82 1011.44 1011.67 1012.20 1012.44 1012.63 1013.34 1013.33 1014.02 1014.40 1014.53 1014.74 1015.04 1015.14
1007.75 1007.93 1008.07 1008.37 1008.60 1008.57 1008.65 1008.41 1007.95 1007.37 1006.83 1006.29 1005.14 1004.07 1002.79 1001.41 1001.58 1001.99 1002.55 1003.18 1003.98 1004.83 1005.45 1005.82 1006.67 1007.45 1008.44 1009.09 1009.56 1010.41 1010.90 1011.31 1011.54 1012.20 1011.93 1012.14 1012.42 1013.06 1014.06 1014.54 1014.50 1014.82 1015.24
1008.26 1008.30 1008.43 1008.73 1008.80 1009.03 1009.03 1008.67 1008.08 1007.49 1006.84 1006.24 1005.60 1004.34 1002.69 1001.17 1000.82 1001.25 1002.04 1002.78 1003.14 1003.71 1004.59 1004.73 1004.75 1005.20 1006.79 1007.94 1008.70 1009.50 1010.01 1010.58 1011.06 1011.28 1011.62 1012.14 1012.27 1012.09 1012.48 1013.55 1014.13 1014.45 1014.79
1008.52 1008.59 1008.81 1008.90 1008.83 1009.05 1009.22 1009.00 1008.04 1007.43 1006.77 1005.88 1004.98 1003.81 1002.30 1001.05 1000.01 1000.48 1001.41 1002.00 1002.42 1002.88 1003.62 1004.04 1004.67 1005.20 1005.53 1006.16 1007.51 1008.29 1009.04 1009.74 1010.39 1010.79 1011.12 1011.33 1011.44 1011.66 1012.08 1012.53 1013.33 1013.72 1014.23
1008.99 1008.97 1008.92 1008.91 1008.98 1009.19 1009.10 1008.80 1007.92 1007.37 1006.45 1005.34 1004.18 1002.74 1001.27 1000.40 999.59 999.95 1000.56 1001.47 1001.92 1002.34 1002.83 1003.30 1003.97 1004.27 1004.63 1005.49 1007.11 1006.83 1008.23 1008.96 1009.59 1010.04 1010.51 1010.94 1011.03 1011.20 1011.59 1011.81 1012.43 1013.08 1013.82
1009.46 1009.51 1009.61 1009.64 1009.60 1009.41 1009.09 1008.64 1007.61 1006.94 1005.75 1004.63 1003.22 1001.71 999.71 999.13 999.18 999.69 1000.21 1000.80 1001.22 1001.52 1002.21 1003.12 1003.33 1003.71 1003.78 1003.99 1005.79 1006.39 1007.50 1008.16 1008.88 1009.38 1009.94 1010.31 1010.54 1010.62 1011.22 1011.38 1011.70 1012.30 1012.95
1009.93 1010.10 1010.09 1010.15 1010.10 1009.57 1009.27 1009.07 1007.93 1007.22 1006.15 1004.38 1002.68 1000.62 998.45 998.36 998.88 999.33 999.85 1000.18 1000.12 1000.40 1001.55 1002.65 1003.43 1003.76 1005.12 1004.81 1005.71 1006.35 1006.91 1007.70 1008.38 1008.79 1009.23 1009.61 1009.90 1010.39 1010.66 1010.87 1011.09 1011.21 1011.93
1010.43 1010.60 1010.63 1010.80 1010.63 1010.01 1009.71 1009.40 1008.44 1007.77 1006.13 1004.43 1002.77 1000.62 998.79 998.75 998.84 999.02 999.22 999.78 999.70 1000.32 1001.17 1002.35 1003.02 1003.64 1004.63 1005.31 1005.36 1005.99 1006.74 1007.44 1007.83 1008.19 1008.76 1008.93 1009.12 1009.68 1010.05 1010.31 1010.58 1010.78 1011.03
1011.09 1011.32 1011.35 1011.31 1010.91 1010.43 1010.23 1009.67 1008.29 1007.59 1006.38 1005.05 1003.32 1001.54 999.53 999.07 998.96 998.83 999.19 999.79 1000.09 1000.33 1000.82 1001.56 1002.72 1003.76 1004.34 1004.92 1005.00 1005.53 1006.13 1006.66 1007.31 1007.63 1008.02 1008.22 1008.80 1009.03 1009.29 1009.38 1009.32 1009.80 1010.30
1012.09 1011.96 1011.91 1011.61 1011.43 1011.00 1010.72 1009.94 1009.33 1008.57 1007.61 1006.25 1004.53 1002.89 1001.26 1000.02 999.48 999.41 999.15 999.63 1000.13 1000.46 1000.97 1000.93 1002.07 1002.95 1004.11 1004.36 1004.73 1005.08 1005.55 1006.10 1006.67 1007.10 1007.55 1007.70 1008.08 1008.22 1008.50 1008.65 1008.93 1009.32 1009.70
1012.73 1012.63 1012.45 1012.44 1012.22 1011.78 1011.24 1010.50 1009.98 1009.48 1008.40 1007.05 1005.20 1004.02 1002.93 1001.72 1000.91 999.93 999.58 999.49 999.80 1000.27 1000.86 1001.49 1000.63 1001.56 1003.42 1003.74 1004.50 1005.01 1005.41 1005.89 1006.23 1006.58 1006.86 1007.01 1007.25 1007.48 1007.75 1008.05 1008.30 1008.81 1009.28
1013.48 1013.77 1013.47 1013.21 1012.98 1012.53 1011.70 1011.27 1010.89 1010.39 1009.12 1008.51 1006.64 1005.39 1003.96 1003.27 1002.51 1001.38 999.99 1000.06 1000.24 1000.45 1000.70 1001.00 1000.67 1001.65 1003.20 1004.04 1004.50 1005.02 1005.35 1005.68 1005.72 1005.79 1006.06 1006.24 1006.64 1006.82 1007.03 1007.25 1007.36 1008.00 1008.60
1014.63 1014.80 1014.50 1014.05 1013.89 1013.29 1012.45 1012.13 1011.67 1011.08 1010.38 1008.89 1006.73 1006.32 1005.22 1003.94 1003.27 1002.52 1002.45 1001.99 1001.08 1000.80 1001.26 1001.49 1002.32 1002.60 1003.29 1004.54 1004.89 1004.96 1005.10 1005.34 1005.72 1006.31 1006.74 1007.18 1007.17 1006.60 1006.24 1006.43 1006.75 1007.24 1007.83
1015.71 1015.81 1015.59 1015.14 1015.07 1014.12 1013.56 1013.16 1012.64 1012.13 1011.14 1009.86 1009.21 1008.43 1006.80 1005.91 1005.30 1004.41 1004.06 1004.09 1003.13 1003.27 1002.98 1002.70 1003.14 1003.80 1004.57 1005.59 1005.60 1005.35 1005.41 1005.76 1006.23 1006.82 1007.27 1007.49 1007.30 1007.16 1006.18 1006.17 1006.17 1006.53 1007.08
1016.85 1016.94 1016.65 1016.38 1016.00 1015.15 1014.77 1014.12 1013.74 1013.12 1012.15 1011.29 1010.43 1009.30 1008.39 1007.44 1006.66 1006.10 1005.53 1005.82 1005.07 1005.42 1005.14 1004.25 1004.17 1004.86 1005.70 1006.14 1005.94 1006.12 1006.50 1006.84 1007.27 1007.48 1007.69 1007.82 1008.05 1007.92 1007.62 1006.86 1007.30 1007.71 1007.75
1018.07 1017.88 1017.70 1017.34 1016.71 1016.20 1015.76 1015.20 1014.61 1014.00 1013.23 1012.37 1011.42 1010.56 1009.54 1008.88 1008.45 1008.16 1007.75 1007.18 1006.78 1006.54 1005.56 1005.81 1005.80 1006.00 1006.84 1007.03 1007.18 1007.37 1007.55 1008.02 1008.41 1008.36 1008.52 1008.70 1008.62 1008.53 1008.44 1007.76 1008.15 1009.15 1009.19
1018.97 1018.99 1018.65 1018.07 1017.62 1017.09 1016.62 1015.95 1015.46 1014.94 1014.25 1013.53 1012.88 1012.25 1011.63 1010.84 1010.45 1009.76 1009.39 1008.84 1008.35 1007.81 1008.04 1007.87 1008.13 1007.13 1007.83 1008.19 1008.05 1008.08 1008.51 1009.00 1009.32 1009.46 1009.29 1009.56 1009.47 1009.40 1009.13 1009.20 1009.41 1010.23 1010.85
1019.83 1019.53 1019.21 1018.79 1018.16 1017.93 1017.37 1016.78 1016.33 1015.92 1015.40 1014.93 1014.35 1013.72 1012.99 1012.41 1011.92 1011.56 1011.06 1010.68 1010.00 1009.56 1009.62 1009.14 1010.14 1009.19 1009.33 1009.28 1008.92 1009.17 1009.44 1009.96 1010.49 1010.64 1010.47 1010.51 1010.52 1010.30 1010.20 1010.24 1010.84 1011.23 1012.32
1020.46 1020.11 1019.66 1019.10 1018.80 1018.41 1017.96 1017.51 1017.23 1016.87 1016.77 1016.04 1015.41 1014.85 1014.23 1013.69 1013.27 1012.83 1012.20 1011.72 1011.24 1010.76 1010.37 1010.91 1011.31 1011.12 1010.78 1010.81 1010.36 1010.49 1010.64 1011.26 1011.63 1011.90 1011.89 1011.89 1011.58 1011.48 1011.47 1011.62 1012.11 1012.57 1013.45
1020.87 1020.43 1019.96 1019.59 1019.37 1018.91 1018.34 1018.17 1017.85 1017.87 1017.43 1016.95 1016.28 1015.94 1015.43 1014.93 1014.35 1013.78 1013.40 1012.92 1012.60 1012.24 1012.14 1012.40 1012.29 1012.57 1013.01 1012.84 1012.00 1012.15 1012.26 1012.52 1012.73 1013.34 1013.53 1013.42 1013.08 1012.77 1012.87 1013.12 1013.86 1013.89 1014.06
1021.23 1020.70 1020.33 1020.19 1020.13 1019.75 1019.39 1018.75 1018.30 1018.11 1017.76 1017.34 1017.05 1016.91 1016.51 1016.00 1015.49 1014.95 1014.54 1014.06 1013.93 1013.65 1013.77 1013.79 1013.90 1013.90 1013.85 1014.36 1013.88 1013.64 1014.03 1014.07 1014.32 1014.48 1015.05 1014.86 1014.54 1014.38 1014.37 1014.68 1014.95 1015.05 1015.49
1022.17 1021.58 1021.15 1021.07 1020.85 1020.54 1020.22 1019.69 1019.03 1018.30 1018.04 1017.84 1017.78 1017.66 1017.33 1017.13 1016.88 1016.12 1015.88 1015.81 1015.58 1015.56 1015.31 1015.11 1015.24 1015.40 1015.43 1015.16 1014.58 1015.02 1015.62 1015.15 1015.44 1015.41 1015.88 1016.13 1015.67 1015.40 1015.79 1015.88 1016.13 1016.57 1016.87
1023.17 1022.93 1022.65 1022.34 1021.96 1021.65 1021.28 1020.70 1020.00 1019.20 1018.69 1018.63 1018.50 1018.26 1018.13 1018.04 1017.98 1018.24 1017.99 1017.59 1017.66 1017.18 1016.85 1016.98 1017.04 1016.86 1016.76 1016.80 1016.57 1016.56 1016.57 1016.39 1016.43 1016.46 1016.65 1016.65 1016.52 1016.59 1016.95 1017.25 1017.43 1017.70 1018.04
1024.36 1024.13 1024.01 1023.79 1023.52 1022.99 1022.57 1022.00 1021.15 1020.49 1019.88 1019.51 1019.33 1019.44 1019.08 1018.99 1018.79 1018.73 1019.07 1019.58 1019.44 1019.15 1018.86 1018.62 1018.31 1018.45 1018.27 1018.00 1017.65 1017.85 1017.94 1017.65 1017.46 1017.26 1017.30 1017.52 1017.62 1017.69 1017.99 1018.31 1018.64 1018.89 1019.01
Wind_Speed
5 8 10 11 12 12 13 14 16 15 12 10 11 12 13 13 15 15 20 18 15 16 15 10 10 10 10 10 10 8 9 7 7 5 3 1 6 6 5 5 3 0 7
7 10 13 14 14 14 14 15 16 16 14 11 11 13 12 13 14 13 12 15 17 16 15 12 11 12 9 11 11 13 5 5 8 4 4 3 1 6 7 6 6 7 3
7 10 13 14 15 17 17 16 17 16 16 17 12 12 15 12 11 13 12 16 17 16 16 14 10 10 9 9 12 11 12 6 7 10 5 3 4 2 3 8 7 5 4
8 10 11 13 15 15 17 17 17 18 16 17 15 17 16 16 15 15 12 12 16 16 16 16 15 13 9 10 10 10 11 10 9 6 9 7 5 5 3 1 8 9 9
10 12 13 13 14 15 16 17 17 17 18 17 16 16 18 16 13 11 13 12 14 17 18 16 19 17 14 12 12 14 15 11 8 8 6 7 6 6 3 3 4 4 8
11 12 13 13 14 14 14 16 17 17 18 17 17 19 23 23 15 14 10 10 10 12 17 16 16 14 12 15 13 14 15 13 10 9 8 10 8 8 5 3 7 8 4
12 13 16 17 16 18 19 16 17 20 19 19 18 18 24 24 19 18 10 10 10 9 15 19 15 14 17 17 15 13 15 15 12 11 8 9 9 7 8 4 5 4 3
12 15 16 16 17 18 19 19 18 20 20 19 19 19 22 14 13 12 8 10 10 12 16 17 16 14 11 12 12 10 13 15 13 16 12 7 8 11 4 6 4 5 5
13 15 17 16 18 18 20 19 18 19 19 20 18 20 15 15 9 10 8 9 13 13 15 15 11 10 8 12 14 11 13 12 10 11 13 10 9 8 8 5 3 7 5
13 15 16 17 17 17 18 17 16 18 19 20 17 17 6 10 12 10 12 12 13 12 13 13 10 8 12 14 13 12 10 10 9 9 11 11 10 9 8 9 9 7 7
13 14 14 16 17 17 18 17 18 20 21 20 19 18 7 8 9 9 10 9 11 16 15 15 10 9 9 11 10 10 14 15 10 11 11 13 12 8 9 10 11 10 10
11 12 14 16 17 18 18 18 17 18 19 19 17 15 13 12 4 7 10 12 11 12 14 16 15 11 12 9 10 13 9 12 11 10 10 12 9 12 11 9 11 9 9
11 12 14 15 16 17 18 18 18 17 18 19 17 15 14 14 12 7 6 8 13 15 14 14 12 15 13 11 8 9 10 10 10 9 10 11 11 12 10 12 10 10 8
11 12 12 14 15 16 18 17 17 16 18 15 15 14 15 13 13 12 9 5 8 9 12 12 12 13 10 9 9 8 8 7 10 12 10 12 10 12 11 11 13 11 11
10 12 12 14 15 16 17 18 16 17 16 15 16 19 15 15 13 15 14 12 8 4 7 10 9 11 10 5 1 4 8 7 5 3 1 3 7 13 12 10 12 13 12
10 12 13 14 15 16 17 16 17 16 16 16 16 15 16 15 14 13 15 14 14 12 6 10 11 11 8 9 4 4 3 5 4 3 3 3 7 8 5 6 5 12 14
10 11 12 12 13 15 15 16 15 15 15 16 16 17 15 14 15 12 14 14 14 13 12 11 12 12 12 13 14 10 6 7 7 5 4 3 4 6 5 17 18 17 17
10 11 10 11 13 14 14 14 14 15 16 15 17 18 18 18 16 13 12 12 11 13 12 13 13 13 12 16 14 13 11 10 10 9 8 6 6 8 6 9 14 13 15
8 8 10 10 12 13 14 13 15 15 17 17 16 16 15 15 15 16 14 11 11 15 15 14 11 15 13 16 15 12 11 11 12 11 10 9 9 11 12 10 13 13 12
8 9 9 9 12 12 13 14 15 15 15 16 15 15 14 14 14 13 14 12 10 13 12 17 14 22 14 20 20 13 8 11 8 10 12 20 13 17 14 11 9 13 10
9 8 9 11 11 9 10 13 13 16 14 13 13 14 14 14 13 12 12 11 12 13 15 15 13 17 18 19 24 21 10 8 9 9 9 10 23 24 24 21 12 11 9
10 10 10 12 13 14 13 12 14 11 11 12 13 14 14 12 11 13 12 12 11 12 12 11 11 11 14 22 27 27 23 17 11 11 9 12 24 25 26 19 22 21 13
10 10 11 12 13 14 14 14 12 10 9 11 13 13 14 13 12 14 13 10 11 11 11 10 8 8 9 9 23 26 24 22 12 9 16 20 22 24 20 25 22 14 9
11 11 12 14 14 14 14 14 13 11 12 13 13 12 13 14 15 11 11 11 11 10 10 10 9 10 10 9 9 9 7 11 10 12 11 11 14 18 14 13 13 10 9
11 11 11 12 13 13 14 14 14 13 11 12 11 11 10 11 12 14 14 12 14 15 10 10 10 9 10 11 16 13 8 8 8 7 7 8 9 10 10 10 10 9 8
10 11 12 12 12 13 14 15 16 15 13 11 10 10 9 8 8 8 10 22 23 24 23 22 14 10 17 18 18 16 14 12 6 6 7 8 8 9 8 8 8 8 9
Wind_Direction
344 357 360 353 342 337 325 321 314 314 308 294 274 239 232 221 224 222 219 208 205 197 196 191 185 185 189 183 183 183 183 190 177 148 140 18 213 194 195 194 175 320 245
354 358 354 351 348 339 335 323 312 314 307 293 277 276 238 232 229 233 220 209 206 196 194 185 184 188 188 185 184 189 177 188 179 150 126 185 243 218 204 200 198 205 194
359 359 354 349 342 337 336 326 317 311 305 297 281 265 262 241 219 223 216 208 202 198 185 181 176 186 188 191 181 183 183 175 182 183 161 172 203 127 195 207 197 193 189
5 358 349 345 342 338 333 328 320 313 305 302 289 264 265 234 223 222 212 202 191 185 183 176 176 180 176 180 182 185 192 191 187 191 218 234 137 185 175 227 209 200 196
6 356 351 343 334 343 332 328 322 316 311 302 285 271 254 249 235 221 210 199 187 183 188 191 160 189 169 178 183 190 205 197 193 195 185 212 203 223 153 167 183 197 207
360 355 350 343 341 341 337 327 329 321 310 304 289 263 262 251 231 218 214 193 191 181 189 190 187 186 172 170 182 190 206 201 200 200 199 209 201 203 191 181 190 204 194
359 351 351 346 344 341 338 334 336 320 316 308 292 272 264 238 232 227 201 187 192 187 191 186 188 187 182 176 192 176 202 205 204 199 197 206 215 216 212 216 167 162 160
0 356 353 349 342 340 339 340 339 325 323 312 302 290 260 222 222 219 198 199 198 205 197 205 201 208 191 159 181 178 203 204 209 207 206 198 212 221 200 220 178 177 172
2 358 353 355 342 346 342 341 340 327 320 320 315 304 239 214 205 205 196 215 207 207 202 199 186 169 218 186 185 189 195 200 204 212 208 206 206 208 205 211 218 194 181
2 0 357 352 343 350 343 339 345 331 329 329 323 311 222 206 201 195 199 190 204 189 173 173 166 174 189 198 182 187 192 196 205 205 209 208 216 206 206 209 216 216 203
2 359 354 352 352 351 349 342 351 347 340 335 333 337 291 218 206 190 170 172 169 168 165 165 153 165 186 187 185 181 195 202 209 205 204 205 205 207 211 214 217 220 209
3 358 358 358 355 356 353 355 352 348 341 333 337 343 345 351 194 197 181 177 175 171 174 165 164 153 195 184 192 196 190 195 198 196 202 212 212 216 215 215 218 207 205
8 2 5 359 357 360 360 356 353 345 342 337 349 354 358 4 354 305 189 185 176 183 189 197 154 154 199 202 193 195 187 197 199 199 208 214 214 219 217 210 210 205 197
16 6 5 359 359 2 7 360 354 350 342 332 357 360 0 2 358 0 2 178 201 188 184 181 142 152 168 176 178 188 192 211 226 224 230 237 233 223 220 215 208 197 187
18 8 4 2 358 3 9 4 359 349 347 353 360 7 355 16 360 23 16 5 21 135 124 109 100 102 105 66 73 185 201 205 193 91 56 28 320 281 230 213 201 192 189
21 10 6 6 359 8 6 2 0 355 352 6 8 358 8 12 18 31 35 19 31 20 60 94 99 87 67 15 319 219 122 80 118 123 73 33 6 12 103 109 147 195 182
22 8 5 5 5 11 7 6 0 359 4 7 8 7 11 12 22 24 44 37 37 28 20 64 80 71 61 45 49 55 95 91 76 66 53 64 51 43 54 85 72 57 50
19 14 6 5 12 14 12 11 11 9 12 11 13 10 12 18 17 23 30 46 43 38 29 34 50 74 57 51 64 76 81 79 68 62 55 56 53 47 50 84 79 62 51
25 21 14 19 22 20 14 19 19 19 18 16 14 12 14 20 22 23 20 27 47 52 40 36 26 59 57 57 61 76 77 70 61 53 56 54 59 55 78 79 91 82 64
21 20 25 18 31 22 22 25 24 21 17 14 16 16 18 23 25 25 29 28 46 58 52 54 26 48 53 54 62 65 71 70 62 56 57 59 64 67 68 81 85 82 66
28 28 32 36 28 24 26 29 25 26 15 12 22 23 23 24 23 28 29 34 42 53 53 52 40 39 45 49 61 64 65 68 66 58 57 63 75 75 74 74 70 80 89
33 35 42 38 30 26 30 35 31 14 16 21 28 26 28 29 26 30 34 33 37 44 48 51 52 41 44 52 61 64 67 71 73 65 62 70 74 77 77 76 77 79 76
36 36 42 45 36 33 27 26 30 33 31 31 32 31 33 30 33 36 30 33 37 39 42 46 50 52 42 49 60 64 65 67 70 69 72 73 71 70 68 71 69 68 67
38 33 39 39 34 30 32 24 14 29 36 41 38 37 37 42 32 32 42 37 32 39 38 40 44 45 41 35 45 54 60 70 75 76 71 70 72 68 64 64 60 58 63
38 38 37 38 33 32 30 24 21 15 33 40 38 37 40 41 58 50 35 44 43 41 41 45 40 40 39 39 48 46 49 58 54 75 77 66 65 71 69 69 70 73 73
38 38 38 35 29 29 30 22 21 25 24 32 37 29 38 36 35 46 71 54 50 48 50 48 50 55 52 48 51 54 55 49 33 72 71 69 66 70 73 77 77 72 77